Location: Navalespino
(40.5894°N, 4.2660°W)
Time: 13:00:04
(UTC+00:00)

SL-4 R/B - Pass Details

Date: 18 April 2024
Orbit: 413 x 603 km, 51.6° (Epoch: 23 May)

Event Time Altitude Azimuth Distance (km) Brightness Sun altitude
Rises 21:51:48 0° 310° (NW) 2,467 6.6 -28.4°
Reaches altitude 10° 21:54:09 10° 321° (NW) 1,562 5.3 -28.6°
Enters shadow 21:55:30 19° 336° (NNW) 1,101 4.2 -28.8°
